Grand Junction, CO

6:21 AM MDT on September 21, 2019 (GMT -0600)
Walker

Weather History for KGJT - May, 2019

Change the Weather History Date:

Thursday, May 23, 2019

  Actual Average Record
Temperature  
Mean Temperature 48 °F 64 °F  
Max Temperature 54 °F 79 °F 95 °F (2005)
Min Temperature 42 °F 49 °F 35 °F (1933)
Degree Days  
Heating Degree Days 17 3  
Month to date heating degree days 211 134  
Since 1 July heating degree days 5608 5568  
Cooling Degree Days 0 2  
Month to date cooling degree days 11 26  
Year to date cooling degree days 12 29  
Moisture  
Dew Point 41 °F    
Average Humidity 77    
Maximum Humidity 93    
Minimum Humidity 61    
Precipitation  
Precipitation 0.35 in 0.03 in 0.35 in (2019)
Month to date precipitation 0.64 0.69  
Year to date precipitation 5.69 3.64  
Snow  
Snow 0.00 in 0.00 in 0.00 in (2002)
Month to date snowfall 0.0 0.1  
Since 1 July snowfall 17.4 19.1  
Snow Depth 0.00 in    
Sea Level Pressure  
Sea Level Pressure 29.80 in    
Wind  
Wind Speed 8 mph (NW)    
Max Wind Speed 24 mph    
Max Gust Speed 30 mph    
Visibility 8 miles    
Events Rain    
T = Trace of Precipitation, MM = Missing Value Source: NWS Daily Summary

Daily Weather History Graph

Daily Weather History Graph

Search for Another Location

Airport or City:

Astronomy

May. 23, 2019 Rise Set
Actual Time 5:54 AM MDT 8:27 PM MDT
Civil Twilight 5:24 AM MDT 8:58 PM MDT
Nautical Twilight 4:45 AM MDT 9:36 PM MDT
Astronomical Twilight 4:03 AM MDT 10:19 PM MDT
Moon 12:12 AM MDT (5/23) 10:01 AM MDT (5/23)
Length of Visible Light 15h 34m
Length of Day
14h 32m
Waning Gibbous, 77% of the Moon is Illuminated
May 23
Waning Gibbous
May 26
Last Quarter
Jun 3
New
Jun 10
First Quarter
Jun 17
Full

Hourly Weather History & Observations

Time (MDT) Temp. Windchill Dew Point Humidity Pressure Visibility Wind Dir Wind Speed Gust Speed Precip Events Conditions
12:53 AM 51.1 °F - 43.0 °F 74% 29.70 in 10.0 mi East 3.5 mph - 0.00 in   Overcast
1:53 AM 51.1 °F - 43.0 °F 74% 29.70 in 10.0 mi SW 3.5 mph - 0.00 in Rain Light Rain
2:53 AM 48.0 °F - 45.0 °F 89% 29.71 in 6.0 mi NW 5.8 mph - 0.03 in Rain Light Rain
3:53 AM 46.9 °F - 45.0 °F 93% 29.72 in 8.0 mi North 10.4 mph - 0.05 in Rain Light Rain
4:53 AM 46.0 °F 40.6 °F 42.1 °F 86% 29.70 in 10.0 mi North 11.5 mph - 0.01 in   Overcast
5:53 AM 46.0 °F 41.9 °F 41.0 °F 83% 29.71 in 10.0 mi NNW 8.1 mph - N/A   Overcast
6:53 AM 45.0 °F 41.2 °F 43.0 °F 93% 29.70 in 10.0 mi West 6.9 mph - 0.00 in Rain Light Rain
7:53 AM 46.0 °F 43.9 °F 42.1 °F 86% 29.70 in 10.0 mi West 4.6 mph - 0.00 in   Mostly Cloudy
8:19 AM 46.0 °F 42.5 °F 42.1 °F 86% 29.78 in 10.0 mi WNW 6.9 mph - N/A   Mostly Cloudy
8:53 AM 46.0 °F 43.1 °F 41.0 °F 83% 29.72 in 10.0 mi WNW 5.8 mph - 0.00 in Rain Light Rain
9:42 AM 45.0 °F 43.5 °F 42.1 °F 90% 29.78 in 7.0 mi Variable 3.5 mph - 0.08 in Rain Light Rain
9:53 AM 45.0 °F - 42.1 °F 90% 29.72 in 6.0 mi Calm Calm - 0.09 in Rain Rain
10:53 AM 48.9 °F - 44.1 °F 83% 29.67 in 10.0 mi NNW 5.8 mph - 0.05 in   Overcast
11:03 AM 46.9 °F - 45.0 °F 93% 29.77 in 10.0 mi West 8.1 mph - 0.00 in Rain Light Rain
11:15 AM 46.9 °F - 45.0 °F 93% 29.76 in 10.0 mi West 9.2 mph - 0.00 in Rain Light Rain
11:45 AM 45.0 °F 37.6 °F 43.0 °F 93% 29.80 in 1.8 mi WNW 17.3 mph 23.0 mph 0.04 in Rain Heavy Rain
11:47 AM 44.6 °F 37.4 °F 42.8 °F 93% 29.80 in 2.0 mi WNW 16.1 mph - 0.04 in Rain Heavy Rain
11:53 AM 44.1 °F 36.5 °F 43.0 °F 96% 29.75 in 2.0 mi WNW 17.3 mph - 0.06 in Rain Heavy Rain
12:15 PM 43.0 °F 35.7 °F 39.9 °F 89% 29.85 in 3.0 mi WNW 15.0 mph - 0.05 in Rain Light Rain
12:53 PM 43.0 °F 36.4 °F 39.9 °F 89% 29.79 in 3.0 mi NNW 12.7 mph 21.9 mph 0.05 in Rain Light Rain
1:53 PM 45.0 °F 39.3 °F 39.9 °F 82% 29.80 in 10.0 mi ENE 11.5 mph - 0.01 in   Overcast
2:53 PM 51.1 °F - 41.0 °F 68% 29.76 in 10.0 mi East 21.9 mph 28.8 mph N/A   Partly Cloudy
3:53 PM 51.1 °F - 37.0 °F 59% 29.81 in 10.0 mi SSE 8.1 mph 18.4 mph 0.00 in Rain Light Rain
4:53 PM 53.1 °F - 35.1 °F 50% 29.81 in 10.0 mi South 12.7 mph - 0.00 in   Clear
5:32 PM 48.9 °F - 42.1 °F 77% 29.92 in 10.0 mi NW 19.6 mph 27.6 mph N/A   Partly Cloudy
5:53 PM 46.0 °F 41.0 °F 37.9 °F 73% 29.87 in 10.0 mi WNW 10.4 mph - 0.00 in Rain Light Rain
6:53 PM 48.0 °F - 37.9 °F 68% 29.89 in 10.0 mi NE 6.9 mph - 0.00 in   Overcast
7:53 PM 48.9 °F - 36.0 °F 61% 29.89 in 10.0 mi Calm Calm - N/A   Overcast
8:53 PM 46.9 °F - 37.9 °F 71% 29.93 in 10.0 mi NNW 9.2 mph - N/A   Overcast
9:53 PM 46.9 °F - 37.9 °F 71% 29.94 in 10.0 mi Calm Calm - N/A   Overcast
10:53 PM 44.1 °F - 41.0 °F 89% 29.96 in 10.0 mi Calm Calm - N/A   Overcast
11:53 PM 46.0 °F 43.1 °F 39.9 °F 79% 29.97 in 10.0 mi East 5.8 mph - N/A   Overcast